Meteo Giornale » Osservazioni meteo Italia » Venezia-Tessera

ore: 21:50 - Osservazioni Meteo Venezia-Tessera
Lat. 45° 30' N Lon. 12° 20' E Alt. 2 metri s.l.m.

foschia Europe/Rome

6 °C

Foschia

Temp. 24 Ore

-1 °C

9 °C

Nord/Nord-Est

9.3 Km/h

Dew point 5 °C

Umidità 93 %

Visibilità  2 Km

Il sole sorge alle ore 07:04

Il sole tramonta alle ore 17:44

Data e Ora Cielo e Fenomeni T °C DP °C Um. % Pres. hPa Vis. km Vento km/h
Oggi h: 21:50 foschia Foschia 6 5 93 1023 2 N/NE 9.3
Oggi h: 21:20 foschia Foschia 6 5 93 1023 2 N/NE 11.1
Oggi h: 20:50 foschia Foschia 6 4 86 1023 3 N 11.1
Oggi h: 20:20 foschia Foschia 6 5 93 1023 3 N 13
Oggi h: 19:50 foschia Foschia 6 5 93 1023 3 N/NE 11.1
Oggi h: 19:20 foschia Foschia 7 5 87 1023 3 N/NE 11.1
Oggi h: 18:50 foschia Foschia 8 6 87 1022 3 N 9.3
Oggi h: 18:20 foschia Foschia 8 6 87 1022 3 N 5.5
Oggi h: 17:50 foschia Foschia 9 6 81 1022 3 N 3.7
Oggi h: 17:20 foschia Foschia 9 6 81 1022 3 N 3.7
Oggi h: 16:50 foschia Foschia 9 6 81 1022 2 N 3.7
Oggi h: 16:20 foschia Foschia 9 7 87 1022 2 N 5.5
Oggi h: 15:50 foschia Foschia 9 7 87 1022 2 NE 7.4
Oggi h: 15:20 foschia Foschia 8 6 87 1022 2 N 5.5
Oggi h: 14:50 nebbia NebbiaParziale Foschia 8 6 87 1022 1 N 5.5
Oggi h: 14:20 nebbia NebbiaParziale Foschia 8 6 87 1022 2 N 1.8
Oggi h: 13:50 nebbia NebbiaParziale Foschia 7 7 100 1022 2 N 5.5
Oggi h: 13:20 nebbia NebbiaParziale Foschia 6 6 100 1023 1 N 5.5
Oggi h: 12:50 nebbia NebbiaParziale Foschia 6 6 100 1023 1 N 5.5
Oggi h: 12:20 nebbia Nebbia 5 5 100 1023 0.4 N 5.5
Oggi h: 11:50 nebbia Nebbia 5 5 100 1023 0.4 N 7.4
Oggi h: 11:20 nebbia Nebbia 3 3 100 1023 0.1 N/NO 7.4
Oggi h: 10:50 nebbia Nebbia 2 2 100 1023 0.1 N/NO 9.3
Oggi h: 10:20 nebbia Nebbia 2 2 100 1023 0.05 NO 9.3
Oggi h: 09:50 nebbia Nebbia 1 1 100 1023 0.05 NO 13
Oggi h: 09:20 nebbia Nebbia 2 2 100 1023 0.05 N/NO 9.3
Oggi h: 08:50 nebbia Nebbia 1 1 100 1023 0.05 N 9.3
Oggi h: 08:20 nebbia Nebbia 1 0 93 1023 0.05 N/NE 9.3
Oggi h: 07:50 nebbia Nebbia Congelantesi -0 -0 100 1023 0.05 N/NE 7.4
Oggi h: 07:20 nebbia Nebbia Congelantesi -0 -0 100 1022 0.1 N 9.3
Oggi h: 06:20 nebbia Nebbia Congelantesi -0 -0 100 1022 0.2 N 7.4
Oggi h: 05:50 nebbia Nebbia Congelantesi -1 -1 100 1022 0.2 N 9.3
Oggi h: 05:20 nebbia Nebbia Congelantesi -1 -1 100 1022 0.3 N/NE 9.3
Oggi h: 04:20 nebbia Nebbia Congelantesi -1 -1 100 1022 0.2 N/NE 11.1
Oggi h: 03:50 nebbia Nebbia Congelantesi -0 -0 100 1022 0.15 N/NE 9.3
Oggi h: 03:20 nebbia Nebbia Congelantesi -1 -1 100 1022 0.15 N/NE 7.4
Oggi h: 02:50 nebbia Nebbia Congelantesi -1 -1 100 1022 0.3 N/NE 7.4
Oggi h: 02:20 nebbia Nebbia Congelantesi -0 -0 100 1022 0.3 N/NE 7.4
Oggi h: 01:50 nebbia Nebbia Congelantesi -1 -1 100 1022 0.4 NE 7.4
Oggi h: 01:20 nebbia Nebbia Congelantesi -0 -0 100 1022 0.15 NE 7.4
Oggi h: 00:50 nebbia Nebbia 0 0 100 1022 0.3 N 5.5
Oggi h: 00:20 nebbia Nebbia 0 0 100 1022 0.2 N 1.8
Ieri h: 23:50 nebbia Nebbia 0 0 100 1022 0.3 N 3.7
Ieri h: 23:20 nebbia Nebbia 1 1 100 1022 0.15 N 3.7
Ieri h: 22:50 nebbia Nebbia 2 2 100 1022 0.1 N 3.7
Ieri h: 22:20 nebbia Nebbia 3 3 100 1023 0.1 N 1.8
Ieri h: 21:50 nebbia Nebbia 3 3 100 1023 0.05 N 1.8